Location: Unspecified
(0.0000°N, 0.0000°E)
Time: 18:35:21
(UTC+00:00)

ITAMSAT 1 - Pass Details

Date: 26 September 2021
Orbit: 783 x 797 km, 98.9° (Epoch: 22 October)

Event Time Altitude Azimuth Distance (km) Brightness Sun altitude
Rises 18:24:58 0° 156° (SSE) 3,291 10.6 -8.4°
Reaches altitude 10° 18:27:23 10° 150° (SSE) 2,357 9.9 -9.1°
Maximum altitude 18:32:21 46° 77° (ENE) 1,050 7.9 -10.3°
Drops below altitude 10° 18:37:17 10° 5° (N) 2,339 10.1 -11.5°
Sets 18:39:40 0° 359° (N) 3,263 10.9 -12.1°
